Weather in Naryan-Mar

Russia / Nenets Autonomous Okrug     67°38′16″N   53°00′24″E
temp.,
°C
wind,
m/s
gust,
m/s
humid.,
%
clouds,
%
prec.,
mm/h
press.,
hPa
HPBL,
m
21 january, fri
fri2100:00−7ssw81492100 0.2 990423
03:00−5ssw7139393 0.4 992418
06:00−7ssw6129496 0.1 994263
09:00−6ssw51095100 0.4 996252
12:00−5s61195100 0.3 998273
15:00−4ssw61296100 0.8 999406
18:00−3sw61296100 0.7 1001469
21:00−3sw61196100 1.3 1004406
22 january, sat
sat2200:00−4sw5996100 0.6 1007308
03:00−4wsw2497100 1.4 1009156
06:00−6nne3596100 0.7 1012137
09:00−9ne2395100 0.9 101554
12:00−10nne229498 0.1 101731
15:00−14n2295100 0.1 101911
18:00−13n1195100 0.1 102113
21:00−13ssw119597 0.1 102212
23 january, sun
sun2300:00−12s229798 0.1 102345
03:00−14s489788 0.1 1024122
06:00−16ssw599245 0.0 1024155
09:00−19ssw410955 0.0 1024134
12:00−17ssw5129516 0.0 1024199
15:00−17ssw614945 0.0 1024230
18:00−15ssw71692100 0.0 1024296
21:00−13ssw8169097 0.0 1023354
24 january, mon
mon2400:00−13ssw9178992 0.0 1022355
03:00−13ssw9178926 0.0 1021385
06:00−12ssw101988100 0.0 1018414
09:00−11ssw112187100 0.0 1016459
12:00−10ssw1020815 0.0 1018446
15:00−10ssw101982100 0.0 1017471
18:00−9ssw10188889 0.0 1015482
21:00−9ssw10179199 0.2 1014510
25 january, tue
tue2500:00−9ssw91791100 0.1 1013523
03:00−8ssw91787100 0.1 1012531
06:00−9ssw91694100 0.4 1011587
09:00−8ssw91590100 0.7 1011595
12:00−7sw91591100 0.1 1011619
15:00−7sw81592100 0.3 1012594
18:00−7sw81493100 0.4 1012568
21:00−8sw81490100 0.5 1013453